Showing default

SKYBEE-A01, 62671

Orbit data source: Space-Track

SKYBEE-A01, 62671 is a payload satellite owned by ConstellR (DE) in SSO that was launched on Tue, 14 Jan 2025 UTC via an FALCON 9 launch vehicle from the Air Force Western Test Range (AFWTR). Payload-class satellites include a variety of spacecraft equipped with specific instruments for various scientific and technological missions. These include communications satellites like Starlink; space stations such as the ISS; scientific satellites like the Hubble; Earth observation satellites from companies like Planet Labs, Umbra, and HawkEye 360; GPS; miniature CubeSats for education and research; and military/defense satellites.

Loading next visibility...
Identifier
62671, 2025-009BQ
Orbit
SSO
Country
Flag of DEDE / GER
Related business
Manufacturer
NanoAvionics
Mission
Operational Commercial Imaging
Bus & Motor
CUBESAT 16U MP42, Unknown motor
Mass
110 kg wet, 110 kg dry
Launch date (UTC)
2025-01-14 (9 months ago)
Launch vehicle
FALCON 9
Launch site
Air Force Western Test Range (AFWTR)
Object type
Payload
Rocket body
Debris
Shape & HBR
Box + 2 Pan, 2.6 m
Radar Cross Section
0.146 m², Medium (>0.1 m² and < 1m²)

Expand to show TLE details & history
Last TLE update: 11 hours ago

TLE from 11 hours ago
0 SKYBEE-A01
1 62671U 25009BQ  25287.90095201  .00004371  00000-0  21063-3 0  9998
2 62671  97.4218   5.7928 0006991 107.8655 252.3342 15.19229123 99074
Epoch: 2025-10-14T21:37Z
TLE epoch observation values (Epoch: 2025-10-14T21:37:22.253Z)
Latitude
-0.0001°
Longitude
17.76735°
Altitude
512.722 km
Speed
7.607 km/s
True Right ascension
00h 23m 10s
True Declination
0° 00' 00"
Sunlit
Object was in full shadow at epoch
Visualization orbit readout
Latitude
Unknown
Longitude
Unknown
Altitude
Unknown
Speed
Unknown
Apparent Right ascension
Unknown
Apparent Declination
Unknown
Sunlit
N/A
Visualization observer readout
Local Sidereal Time
02:57:19
Azimuth
Unknown
Elevation
Unknown
Doppler factor
Unknown
Orbital elements
Apogee altitude
509.949 km
Perigee altitude
500.325 km
Semi-major axis
6,883.274 km
Eccentricity
0.0007
Inclination
97.4218°
RAAN
5.7928°
Arg. of periapsis
107.8655°
True anomaly
252.25789°
Mean anomaly
252.3342°
Eccentric anomaly
252.29604°
Mean motion
3.80059 °/min
Orbital period
94.72 mins
BSTAR
0.00021063
Loading maneuver chart data...
Computing Atmospheric mass density...
Loading historical data...
Loading historical data...
Loading historical data...
Loading historical data...
Loading historical data...
Loading historical data...
Loading historical data...

Documentation

Showing up to 5 results
|